• Join FlightAware (Why Join?)
  • Login
  • US Flag GB Flag 
04:13 EDT


 

Airport Tracker/Info


-or-


 

Live Flight TrackerFlight Track Log ✈ DAL1562 ✈ 10-Apr-2013 ✈ KDTW - KPHL

Flight Track Log - Related Links

Times and Time Zones

All times are in EDT time to prevent confusion due to time zone crossing. See the DAL1562 flight status page for this flight to view local times or setup timezone preferences in your user account.

Time Position Orientation Groundspeed Altitude Reporting Facility
EDT Latitude Longitude Course Direction KTS MPH feet Rate Location/Type
16:24 42.2272 -83.3369 26° Northeast 145 167 1,400  Level Cleveland Center
16:25 42.2397 -83.3289 26° Northeast 151 174 2,200 1,980 Climbing Cleveland Center
16:25 42.2472 -83.3192 44° Northeast 187 215 2,500 1,680 Climbing FAA TRACON SMA TRACON (SMA)
16:25 42.2661 -83.3031 32° Northeast 228 262 3,300 2,460 Climbing FAA TRACON SMA TRACON (SMA)
16:26 42.2883 -83.2825 34° Northeast 261 300 4,300 2,700 Climbing FAA TRACON SMA TRACON (SMA)
16:26 42.3025 -83.2686 36° Northeast 275 316 5,000 3,240 Climbing FAA TRACON SMA TRACON (SMA)
16:26 42.3239 -83.2458 38° Northeast 288 331 6,300 3,900 Climbing FAA TRACON SMA TRACON (SMA)
16:27 42.3364 -83.2097 65° Northeast 311 358 7,600 3,420 Climbing FAA TRACON SMA TRACON (SMA)
16:27 42.3342 -83.1772 95° East 309 356 8,600 3,000 Climbing FAA TRACON SMA TRACON (SMA)
16:27 42.3247 -83.1400 109° East 321 369 9,600 3,000 Climbing FAA TRACON SMA TRACON (SMA)
16:28 42.3133 -83.0931 108° East 349 402 10,600 2,400 Climbing FAA TRACON SMA TRACON (SMA)
16:28 42.3039 -83.0528 108° East 364 419 11,200 2,100 Climbing FAA TRACON SMA TRACON (SMA)
16:28 42.2931 -83.0106 109° East 385 443 12,000 2,340 Climbing FAA TRACON SMA TRACON (SMA)
16:29 42.2786 -82.9564 110° East 404 465 12,800 1,500 Climbing FAA TRACON SMA TRACON (SMA)
16:29 42.2731 -82.9094 99° East 414 476 13,000 600 Climbing FAA TRACON SMA TRACON (SMA)
16:29 42.2703 -82.8625 95° East 403 464 13,200 1,080 Climbing FAA TRACON SMA TRACON (SMA)
16:30 42.2653 -82.8036 97° East 411 473 13,800 1,620 Climbing FAA TRACON SMA TRACON (SMA)
16:30 42.2592 -82.7567 100° East 414 476 14,400 1,860 Climbing FAA TRACON SMA TRACON (SMA)
16:30 42.2592 -82.7075 90° East 438 504 15,000 2,220 Climbing FAA TRACON SMA TRACON (SMA)
16:31 42.2600 -82.6439 89° East 448 516 15,800 2,760 Climbing FAA TRACON SMA TRACON (SMA)
16:31 42.2606 -82.5922 89° East 447 514 16,800 3,000 Climbing FAA TRACON SMA TRACON (SMA)
16:31 42.2619 -82.5400 88° East 452 520 17,800 3,300 Climbing FAA TRACON SMA TRACON (SMA)
16:32 42.2622 -82.4750 90° East 452 520 19,000 3,300 Climbing FAA TRACON SMA TRACON (SMA)
16:32 42.2622 -82.4231 90° East 451 519 20,000 2,700 Climbing FAA TRACON SMA TRACON (SMA)
16:32 42.2622 -82.3711 90° East 451 519 20,800 2,460 Climbing FAA TRACON SMA TRACON (SMA)
16:33 42.2631 -82.3050 89° East 455 524 21,700 2,400 Climbing FAA TRACON SMA TRACON (SMA)
16:33 42.2636 -82.2519 89° East 459 528 22,400 1,800 Climbing FAA TRACON SMA TRACON (SMA)
16:33 42.2644 -82.1975 89° East 461 531 22,900 900 Climbing FAA TRACON SMA TRACON (SMA)
16:34 42.2656 -82.1706 87° East 462 532 23,000 1,080 Climbing FAA TRACON SMA TRACON (SMA)
16:34 42.2650 -82.0703 90° East 453 521 23,700 1,920 Climbing Cleveland Center
16:35 42.2672 -81.8906 89° East 463 533 25,700 1,920 Climbing Cleveland Center
16:36 42.2753 -81.7197 86° East 463 533 27,600 1,500 Climbing Cleveland Center
16:37 42.2750 -81.5400 90° East 463 533 28,800 1,320 Climbing Cleveland Center
16:38 42.2658 -81.3575 94° East 478 550 30,300 1,020 Climbing Cleveland Center
16:39 42.2500 -81.1975 98° East 485 558 30,900 300 Climbing Cleveland Center
16:40 42.1694 -81.0678 130° Southeast 447 514 31,000  Climbing Cleveland Center
16:41 42.0636 -80.9719 146° Southeast 445 512 31,000  Level Cleveland Center
16:42 41.9553 -80.8903 151° Southeast 452 520 31,000  Level Cleveland Center
16:43 41.8325 -80.8200 157° South 465 535 31,000  Level Cleveland Center
16:44 41.7036 -80.7389 155° Southeast 471 542 31,000  Level Cleveland Center
16:45 41.5869 -80.6664 155° Southeast 471 542 31,000  Level Cleveland Center
16:46 41.4722 -80.5969 156° South 465 535 31,000  Level Cleveland Center
16:47 41.3533 -80.5250 156° South 459 528 31,000  Level Cleveland Center
16:48 41.2386 -80.4561 156° South 459 528 31,000  Level Cleveland Center
16:49 41.1344 -80.3928 155° Southeast 459 528 31,000  Level Cleveland Center
16:50 41.0175 -80.3244 156° South 459 528 31,000  Level Cleveland Center
16:51 40.9025 -80.2533 155° Southeast 459 528 31,000  Level Cleveland Center
16:52 40.8022 -80.1525 143° Southeast 459 528 31,000  Level Cleveland Center
16:53 40.7411 -79.9994 118° Southeast 443 510 31,000  Level Cleveland Center
16:54 40.6672 -79.8550 124° Southeast 456 525 31,000  Level Cleveland Center
16:55 40.5850 -79.7028 125° Southeast 468 539 31,000  Level Cleveland Center
16:56 40.5086 -79.5644 126° Southeast 473 544 31,000 -360 Level Cleveland Center
16:57 40.4364 -79.4211 123° Southeast 473 544 30,300 -600 Descending Cleveland Center
16:58 40.3642 -79.2914 126° Southeast 478 550 29,800 -480 Descending Cleveland Center
16:59 40.2917 -79.1486 124° Southeast 478 550 29,400 -420 Descending Cleveland Center
17:00 40.2122 -78.9817 122° Southeast 483 556 29,000 -240 Descending Cleveland Center
17:01 40.1494 -78.8283 118° Southeast 483 556 29,000 -120 Level Cleveland Center
17:02 40.0969 -78.6697 113° Southeast 478 550 28,800 -600 Descending Cleveland Center
17:03 40.1025 -78.5039 87° East 456 525 27,900 -900 Descending Cleveland Center
17:04 40.1581 -78.3556 64° Northeast 433 498 27,100 -360 Descending Cleveland Center
17:06 40.2417 -78.1461 62° Northeast 440 506 27,000 -600 Descending New York Center
17:07 40.2983 -78.0053 62° Northeast 445 512 25,700 -1,020 Descending New York Center
17:08 40.3144 -77.8433 83° East 445 512 25,000 -900 Descending New York Center
17:09 40.3008 -77.6842 96° East 435 501 24,000 -1,320 Descending New York Center
17:10 40.2775 -77.5103 100° East 440 506 22,400 -1,440 Descending New York Center
17:11 40.2569 -77.3586 100° East 434 499 21,100 -1,260 Descending New York Center
17:12 40.2394 -77.2211 99° East 429 494 19,900 -1,320 Descending New York Center
17:13 40.2208 -77.0617 99° East 436 502 18,600 -1,500 Descending New York Center
17:14 40.1989 -76.8883 99° East 436 502 17,000 -1,440 Descending New York Center
17:15 40.1775 -76.7342 100° East 430 495 15,800 -1,200 Descending New York Center
17:16 40.1581 -76.5778 99° East 430 495 14,600 -1,200 Descending New York Center
17:17 40.1419 -76.4406 99° East 430 495 13,400 -1,200 Descending New York Center
17:18 40.1186 -76.2636 100° East 411 473 12,100 -1,200 Descending FAA TRACON SMA TRACON (SMA)
17:18 40.1147 -76.2131 96° East 404 465 11,700 -1,200 Descending FAA TRACON SMA TRACON (SMA)
17:18 40.1117 -76.1689 95° East 400 460 11,300 -1,140 Descending FAA TRACON SMA TRACON (SMA)
17:19 40.1061 -76.0733 94° East 381 438 10,600 -1,020 Descending FAA TRACON SMA TRACON (SMA)
17:19 40.1039 -76.0333 94° East 366 421 10,300 -780 Descending FAA TRACON SMA TRACON (SMA)
17:20 40.0997 -75.9856 96° East 340 391 10,100 -1,140 Descending FAA TRACON SMA TRACON (SMA)
17:20 40.0961 -75.9403 96° East 329 379 9,500 -1,440 Descending FAA TRACON SMA TRACON (SMA)
17:20 40.0942 -75.9039 94° East 329 379 9,100 -1,500 Descending FAA TRACON SMA TRACON (SMA)
17:21 40.0919 -75.8683 95° East 324 373 8,600 -1,680 Descending FAA TRACON SMA TRACON (SMA)
17:21 40.0886 -75.8342 97° East 319 367 8,100 -1,200 Descending FAA TRACON SMA TRACON (SMA)
17:21 40.0858 -75.7994 96° East 315 362 7,800 -1,200 Descending FAA TRACON SMA TRACON (SMA)
17:22 40.0836 -75.7636 95° East 314 361 7,300 -1,680 Descending FAA TRACON SMA TRACON (SMA)
17:22 40.0811 -75.7208 94° East 309 356 6,700 -1,680 Descending FAA TRACON SMA TRACON (SMA)
17:22 40.0828 -75.6872 86° East 308 354 6,200 -1,080 Descending FAA TRACON SMA TRACON (SMA)
17:23 40.0847 -75.6522 86° East 295 339 6,000 -300 Descending FAA TRACON SMA TRACON (SMA)
17:23 40.0858 -75.6125 88° East 296 341 6,000  Level FAA TRACON SMA TRACON (SMA)
17:25 40.0917 -75.4458 87° East 297 342 6,000  Level New York Center
17:25 40.0956 -75.3953 84° East 293 337 6,000  Level FAA TRACON SMA TRACON (SMA)
17:25 40.0892 -75.3622 104° East 303 349 6,000  Level FAA TRACON SMA TRACON (SMA)
17:26 40.0828 -75.3294 104° East 309 356 6,000  Level FAA TRACON SMA TRACON (SMA)
17:26 40.0742 -75.2894 106° East 298 343 6,000  Level FAA TRACON SMA TRACON (SMA)
17:26 40.0681 -75.2592 105° East 298 343 6,000  Level FAA TRACON SMA TRACON (SMA)
17:27 40.0617 -75.2247 104° East 297 342 6,000 -180 Level FAA TRACON SMA TRACON (SMA)
17:27 40.0550 -75.1856 103° East 294 338 5,900 -660 Descending FAA TRACON SMA TRACON (SMA)
17:27 40.0475 -75.1536 107° East 290 334 5,600 -1,080 Descending FAA TRACON SMA TRACON (SMA)
17:28 40.0414 -75.1242 105° East 285 328 5,200 -1,080 Descending FAA TRACON SMA TRACON (SMA)
17:28 40.0319 -75.0950 113° Southeast 279 321 4,900 -1,080 Descending FAA TRACON SMA TRACON (SMA)
17:28 40.0125 -75.0733 140° Southeast 248 285 4,500 -1,200 Descending FAA TRACON SMA TRACON (SMA)
17:29 39.9936 -75.0594 151° Southeast 239 275 4,100 -1,380 Descending FAA TRACON SMA TRACON (SMA)
17:29 39.9750 -75.0567 173° South 234 269 3,600 -1,680 Descending FAA TRACON SMA TRACON (SMA)
17:29 39.9531 -75.0592 185° South 199 229 3,000 -1,380 Descending FAA TRACON SMA TRACON (SMA)
17:30 39.9250 -75.0775 207° Southwest 173 199 2,200 -1,020 Descending FAA TRACON SMA TRACON (SMA)
17:30 39.9108 -75.0919 218° Southwest 171 197 2,000 -480 Descending FAA TRACON SMA TRACON (SMA)
17:31 39.9000 -75.1022 216° Southwest 158 182 1,900 -600 Descending FAA TRACON SMA TRACON (SMA)
17:31 39.8950 -75.1178 247° West 149 171 1,600 -900 Descending FAA TRACON SMA TRACON (SMA)
17:31 39.8922 -75.1339 257° West 158 182 1,300 -780 Descending FAA TRACON SMA TRACON (SMA)
17:32 39.8892 -75.1533 258° West 139 160 1,100 -600 Descending FAA TRACON SMA TRACON (SMA)
17:32 39.8864 -75.1681 256° West 137 158 900 -780 Descending FAA TRACON SMA TRACON (SMA)
17:32 39.8839 -75.1803 255° West 132 152 600 -780 Descending FAA TRACON SMA TRACON (SMA)
17:33 39.8794 -75.2014 255° West 138 159 400 -600 Descending FAA TRACON SMA TRACON (SMA)
17:33 39.8764 -75.2164 255° West 138 159 200 -300 Descending FAA TRACON SMA TRACON (SMA)
17:33 39.8764 -75.2164 143° Southeast 138 159 200  Level FAA TRACON SMA TRACON (SMA)
17:35 39.8667 -75.2333 270° West  Level FlightAware Approximate